This is the latest recevied weather packets stored in our database for station/object CT2HRB-13. If no packets are shown the sender has not sent any weather packets the latest 10 day(s).
| Time | Temp. | Humidity | Pressure | Rain* | Wind** | Luminosity | Snow |
|---|---|---|---|---|---|---|---|
| 1777887002 | 17.22° C | 64% | 1016.7 hPa | - | - | - | - |
| 1777886702 | 17.22° C | 64% | 1016.6 hPa | - | - | - | - |
| 1777886401 | 17.22° C | 65% | 1016.5 hPa | - | - | - | - |
| 1777886101 | 17.22° C | 65% | 1016.7 hPa | - | - | - | - |
| 1777885802 | 17.22° C | 67% | 1016.6 hPa | - | - | - | - |
| 1777885502 | 16.67° C | 69% | 1016.4 hPa | - | - | - | - |
| 1777885202 | 16.11° C | 71% | 1016.7 hPa | - | - | - | - |
| 1777884902 | 16.11° C | 72% | 1016.6 hPa | - | - | - | - |
| 1777884601 | 15.56° C | 73% | 1016.6 hPa | - | - | - | - |
| 1777884301 | 15.56° C | 73% | 1016.5 hPa | - | - | - | - |
| 1777884001 | 15.56° C | 72% | 1016.5 hPa | - | - | - | - |
| 1777883701 | 15.56° C | 72% | 1016.7 hPa | - | - | - | - |
| 1777883402 | 16.11° C | 72% | 1016.5 hPa | - | - | - | - |
| 1777883101 | 15.56° C | 75% | 1016.4 hPa | - | - | - | - |
| 1777882802 | 15° C | 77% | 1016.5 hPa | - | - | - | - |
| 1777882501 | 14.44° C | 78% | 1016.4 hPa | - | - | - | - |
| 1777882202 | 13.89° C | 78% | 1016.5 hPa | - | - | - | - |
| 1777881902 | 13.89° C | 77% | 1016.3 hPa | - | - | - | - |
| 1777881601 | 14.44° C | 77% | 1016.5 hPa | - | - | - | - |
| 1777881301 | 14.44° C | 77% | 1016.1 hPa | - | - | - | - |
| 1777881002 | 14.44° C | 76% | 1016.3 hPa | - | - | - | - |
| 1777880702 | 15° C | 76% | 1016.1 hPa | - | - | - | - |
| 1777880401 | 15° C | 77% | 1016.1 hPa | - | - | - | - |
| 1777880101 | 14.44° C | 77% | 1016.1 hPa | - | - | - | - |
| 1777879801 | 14.44° C | 78% | 1015.8 hPa | - | - | - | - |
* Rain since midnight (hover to see other rain measurements)
** Current wind speed in m/s (hover to see current wind gust speed)